{"data":{"norad_id":33376,"epoch":"2026-05-25T00:18:38.563776Z","epoch_age_seconds":73633,"freshness":"FRESH","line1":"1 33376U 08045A   26145.01294634 -.00000142  00000+0  00000+0 0  9992","line2":"2 33376   0.0471 104.5742 0002913 326.5315  79.1700  1.00273196 64675","mean_motion":1.00273196,"eccentricity":0.0002913,"inclination_deg":0.0471,"raan_deg":104.5742,"arg_perigee_deg":326.5315,"mean_anomaly_deg":79.17,"bstar":0,"rev_number":6467,"period_min":1436.0766959098,"perigee_km":35773.916940112,"apogee_km":35798.481882505,"semimajor_km":42164.336411308,"source":"CELESTRAK","updated_at":"2026-05-25T13:38:14.327752Z"}}